TimeEST,TemperatureF,Dew PointF,Humidity,Sea Level PressureIn,VisibilityMPH,Wind Direction,Wind SpeedMPH,Gust SpeedMPH,PrecipitationIn,Events,Conditions,WindDirDegrees,DateUTC
12:53 AM,71.1,66.9,87,29.99,10.0,South,6.9,-,N/A,,Partly Cloudy,190,2013-01-31 05:53:00
1:53 AM,70.0,66.9,90,29.98,10.0,SSW,6.9,-,N/A,,Partly Cloudy,200,2013-01-31 06:53:00
2:53 AM,70.0,66.9,90,29.95,10.0,South,8.1,-,N/A,,Clear,180,2013-01-31 07:53:00
3:53 AM,70.0,66.9,90,29.95,10.0,South,8.1,-,N/A,,Clear,180,2013-01-31 08:53:00
4:53 AM,70.0,68.0,93,29.96,10.0,South,5.8,-,N/A,,Partly Cloudy,190,2013-01-31 09:53:00
5:53 AM,71.1,69.1,93,29.96,10.0,South,6.9,-,N/A,,Scattered Clouds,190,2013-01-31 10:53:00
6:53 AM,71.1,69.1,93,29.98,10.0,SSW,8.1,-,N/A,,Mostly Cloudy,200,2013-01-31 11:53:00
7:42 AM,71.6,69.8,94,30.02,10.0,West,18.4,21.9,N/A,,Mostly Cloudy,280,2013-01-31 12:42:00
7:53 AM,66.9,64.9,93,30.04,10.0,NW,24.2,28.8,0.01,Rain,Light Rain,310,2013-01-31 12:53:00
8:00 AM,62.6,60.8,94,30.05,10.0,NW,20.7,28.8,0.00,Rain,Light Rain,320,2013-01-31 13:00:00
8:16 AM,62.6,60.8,94,30.06,10.0,NW,19.6,26.5,0.00,Rain,Light Rain,310,2013-01-31 13:16:00
8:48 AM,62.6,60.8,94,30.08,10.0,NW,13.8,-,0.00,,Overcast,320,2013-01-31 13:48:00
8:53 AM,63.0,60.1,90,30.09,10.0,NNW,17.3,-,0.00,,Overcast,330,2013-01-31 13:53:00
8:59 AM,62.6,60.8,94,30.09,10.0,NNW,11.5,-,N/A,,Overcast,330,2013-01-31 13:59:00
9:15 AM,62.6,59.0,88,30.09,10.0,NW,11.5,-,N/A,,Overcast,320,2013-01-31 14:15:00
9:53 AM,62.1,57.9,86,30.11,10.0,NW,15.0,-,N/A,,Overcast,320,2013-01-31 14:53:00
10:17 AM,62.6,57.2,82,30.12,10.0,NNW,16.1,-,N/A,,Overcast,330,2013-01-31 15:17:00
10:47 AM,62.6,57.2,82,30.12,10.0,NW,10.4,-,N/A,,Overcast,310,2013-01-31 15:47:00
10:53 AM,63.0,57.0,81,30.12,10.0,WNW,12.7,-,N/A,,Overcast,300,2013-01-31 15:53:00
11:02 AM,62.6,57.2,82,30.11,10.0,NW,13.8,-,N/A,,Overcast,320,2013-01-31 16:02:00
11:42 AM,62.6,53.6,72,30.11,10.0,NW,10.4,-,N/A,,Overcast,320,2013-01-31 16:42:00
11:49 AM,62.6,51.8,68,30.11,10.0,NNW,11.5,-,N/A,,Overcast,330,2013-01-31 16:49:00
11:53 AM,62.1,50.0,65,30.10,10.0,NNW,10.4,-,N/A,,Overcast,340,2013-01-31 16:53:00
12:53 PM,64.0,48.9,58,30.09,10.0,NNW,8.1,-,N/A,,Overcast,340,2013-01-31 17:53:00
1:53 PM,60.1,55.0,83,30.07,10.0,NNW,8.1,-,0.00,Rain,Light Rain,340,2013-01-31 18:53:00
2:53 PM,64.9,50.0,58,30.06,10.0,NW,11.5,-,0.00,,Overcast,320,2013-01-31 19:53:00
3:53 PM,64.9,48.0,54,30.07,10.0,NNW,10.4,-,N/A,,Mostly Cloudy,340,2013-01-31 20:53:00
4:53 PM,66.0,51.1,59,30.09,10.0,NNW,3.5,-,N/A,,Mostly Cloudy,330,2013-01-31 21:53:00
5:53 PM,66.9,53.1,61,30.09,10.0,NNW,3.5,-,N/A,,Mostly Cloudy,340,2013-01-31 22:53:00
6:53 PM,66.0,52.0,60,30.12,10.0,North,8.1,-,N/A,,Scattered Clouds,10,2013-01-31 23:53:00
7:53 PM,64.0,51.1,63,30.13,10.0,NNW,5.8,-,N/A,,Scattered Clouds,340,2013-02-01 00:53:00
8:53 PM,61.0,41.0,48,30.16,10.0,NNW,9.2,-,N/A,,Partly Cloudy,340,2013-02-01 01:53:00
9:53 PM,59.0,37.0,44,30.17,10.0,NNW,10.4,-,N/A,,Partly Cloudy,330,2013-02-01 02:53:00
10:53 PM,55.9,37.9,51,30.18,10.0,NNW,6.9,-,N/A,,Partly Cloudy,330,2013-02-01 03:53:00
11:53 PM,55.0,37.9,53,30.18,10.0,NNW,8.1,-,N/A,,Partly Cloudy,330,2013-02-01 04:53:00